Regional Weather Roundup
Issued by NWS

Home | Current Version | Previous Version | Text Only | Print | Product List | Glossary Off
Versions: 1 2 3 4 5 6 7 8 9 10 11 12 13 14 15 16 17 18 19 20 21 22 23 24 25 26 27

000
ASUS45 KCYS 180910
RWRWY

WYOMING REGIONAL WEATHER ROUNDUP
NATIONAL WEATHER SERVICE CHEYENNE WY
200 AM MST WED JAN 18 2017

NOTE:  "FAIR" INDICATES FEW OR NO CLOUDS BELOW 12,000 FEET
WITH NO SIGNIFICANT WEATHER AND/OR OBSTRUCTIONS TO VISIBILITY.

WYZ001-181000-
YELLOWSTONE NATIONAL PARK

CITY           SKY/WX    TMP DP  RH WIND       PRES   REMARKS
LK YELLOWSTONE   N/A     -6  -9  86 CALM      30.10F
W YELLOWSTONE  NOT AVBL

$$
WYZ002>013-054>058-071-098>099-181000-
NORTHERN WYOMING

CITY           SKY/WX    TMP DP  RH WIND       PRES   REMARKS
JACKSON        FAIR      -8  -9  92 NE6       30.16F WCI -21
CODY           FAIR      16  11  80 NE6       29.88S WCI   7
GREYBULL       FAIR      -1  -6  79 CALM      29.95F
WORLAND        FAIR       1  -2  87 SW6       29.94F WCI -10
SHERIDAN       FAIR      27  19  72 S6        29.81F WCI  20
BUFFALO        FAIR      29  16  58 S5        29.87F WCI  24
GILLETTE       FAIR      35  18  49 SW18      29.87S WCI  24
HULETT         FAIR      32  19  59 SW9       29.88S WCI  24
NEWCASTLE      FAIR      25  14  63 E6        29.93S WCI  18

$$
WYZ014>020-022>026-101>103-181000-
CENTRAL WYOMING

CITY           SKY/WX    TMP DP  RH WIND       PRES   REMARKS
BIG PINEY      FAIR     -13 -17  82 NE3       30.12F
PINEDALE       FAIR     -11 -17  77 NW6       30.12F WCI -25
DUBOIS         NOT AVBL
LANDER         FAIR      10   6  84 CALM      30.00F
RIVERTON       FAIR       3   0  87 CALM      30.03S
CASPER         FAIR      30  10  43 SW23G37   29.96F WCI  17
DOUGLAS        FAIR      23  13  65 W6        29.96R WCI  16

$$
WYZ021-027>030-104>119-181000-
SOUTHERN WYOMING

CITY           SKY/WX    TMP DP  RH WIND       PRES   REMARKS
EVANSTON       FAIR      15   5  64 S8        30.10F WCI   4
ROCK SPRINGS   FAIR      -4  -9  79 CALM      30.12F
RAWLINS        FAIR      12   6  77 CALM      30.11S
LARAMIE        FAIR       4   1  88 N8        30.04R WCI  -9
CHEYENNE       FAIR      26  12  55 W12       29.97S WCI  16
TORRINGTON     FAIR      25  12  58 SE3       29.96R

$$




USA.gov is the U.S. government's official web portal to all federal, state and local government web resources and services.